• In Hungary
  • List of Countries
  • For 7 days
  • Water Temperature
  • Satellite Maps
  • Weather Map
  • News
  • Weather Widgets
  • user-avatar
    Login

    Hourly Weather Obalki

    Today, 23 October, Monday

    Time Temperature Precipitation Wind Pressure Humidity
    00:00 +8°C° 0 mm 2 mps 749 mmHg 91%
    01:00 +7°C° 0 mm 2 mps 749 mmHg 91%
    02:00 +7°C° 0 mm 2 mps 749 mmHg 92%
    03:00 +7°C° 0 mm 2 mps 749 mmHg 92%
    04:00 +7°C° 0 mm 2 mps 748 mmHg 93%
    05:00 +7°C° 0 mm 2 mps 749 mmHg 93%
    06:00 +6°C° 0 mm 2 mps 749 mmHg 94%
    07:00 +6°C° 0 mm 2 mps 749 mmHg 94%
    08:00 +7°C° 0 mm 2 mps 749 mmHg 90%
    09:00 +9°C° 0 mm 2 mps 749 mmHg 85%
    10:00 +10°C° 0 mm 2 mps 749 mmHg 81%
    11:00 +10°C° 0 mm 2 mps 750 mmHg 79%
    12:00 +12°C° 0 mm 2 mps 750 mmHg 76%
    13:00 +12°C° 0 mm 3 mps 750 mmHg 74%
    14:00 +11°C° 0.1 mm 3 mps 750 mmHg 76%
    15:00 +12°C° 0.1 mm 2 mps 750 mmHg 79%
    16:00 +12°C° 0.1 mm 2 mps 751 mmHg 81%
    17:00 +10°C° 0.1 mm 2 mps 751 mmHg 84%
    18:00 +9°C° 0.1 mm 2 mps 752 mmHg 86%
    19:00 +9°C° 0.1 mm 2 mps 752 mmHg 89%
    20:00 +8°C° 0 mm 2 mps 753 mmHg 90%
    21:00 +8°C° 0 mm 2 mps 753 mmHg 91%
    22:00 +7°C° 0 mm 2 mps 754 mmHg 92%
    23:00 +7°C° 0 mm 2 mps 754 mmHg 92%

    Tomorrow, 24 October, Tuesday

    Time Temperature Precipitation Wind Pressure Humidity
    00:00 +7°C° 0 mm 2 mps 755 mmHg 92%
    01:00 +7°C° 0 mm 2 mps 755 mmHg 91%
    02:00 +6°C° 0 mm 2 mps 756 mmHg 92%
    03:00 +6°C° 0 mm 2 mps 756 mmHg 92%
    04:00 +5°C° 0 mm 2 mps 756 mmHg 93%
    05:00 +5°C° 0 mm 2 mps 757 mmHg 92%
    06:00 +5°C° 0 mm 2 mps 757 mmHg 92%
    07:00 +5°C° 0 mm 2 mps 758 mmHg 91%
    08:00 +6°C° 0 mm 2 mps 758 mmHg 85%
    09:00 +7°C° 0 mm 2 mps 758 mmHg 79%
    10:00 +8°C° 0 mm 3 mps 759 mmHg 73%
    11:00 +8°C° 0 mm 2 mps 759 mmHg 70%
    12:00 +9°C° 0 mm 2 mps 759 mmHg 67%
    13:00 +10°C° 0 mm 2 mps 759 mmHg 64%
    14:00 +10°C° 0 mm 2 mps 759 mmHg 66%
    15:00 +9°C° 0 mm 2 mps 759 mmHg 68%
    16:00 +10°C° 0 mm 1 mps 759 mmHg 71%
    17:00 +8°C° 0 mm 2 mps 759 mmHg 73%
    18:00 +7°C° 0 mm 2 mps 759 mmHg 76%
    19:00 +7°C° 0 mm 2 mps 759 mmHg 79%
    20:00 +5°C° 0 mm 3 mps 760 mmHg 80%
    21:00 +5°C° 0 mm 3 mps 760 mmHg 81%
    22:00 +5°C° 0 mm 3 mps 760 mmHg 81%
    23:00 +5°C° 0 mm 3 mps 760 mmHg 82%

    Day after tomorrow, 25 October, Wednesday

    Time Temperature Precipitation Wind Pressure Humidity
    00:00 +5°C° 0 mm 3 mps 759 mmHg 82%
    01:00 +5°C° 0 mm 3 mps 759 mmHg 83%
    02:00 +5°C° 0 mm 3 mps 759 mmHg 84%
    03:00 +5°C° 0 mm 3 mps 759 mmHg 85%
    04:00 +4°C° 0 mm 3 mps 759 mmHg 86%
    05:00 +5°C° 0 mm 4 mps 758 mmHg 84%
    06:00 +5°C° 0 mm 5 mps 758 mmHg 83%
    07:00 +5°C° 0 mm 5 mps 758 mmHg 81%
    08:00 +5°C° 0.4 mm 6 mps 758 mmHg 80%
    09:00 +5°C° 0.4 mm 6 mps 757 mmHg 78%
    10:00 +7°C° 0.4 mm 6 mps 757 mmHg 77%
    11:00 +7°C° 0.8 mm 6 mps 757 mmHg 79%
    12:00 +7°C° 0.8 mm 6 mps 757 mmHg 81%
    13:00 +7°C° 0.8 mm 6 mps 756 mmHg 83%
    14:00 +8°C° 0.1 mm 5 mps 756 mmHg 84%
    15:00 +9°C° 0.1 mm 5 mps 756 mmHg 85%
    16:00 +10°C° 0.1 mm 4 mps 755 mmHg 87%
    17:00 +11°C° 0.1 mm 4 mps 755 mmHg 88%
    18:00 +10°C° 0.1 mm 5 mps 755 mmHg 90%
    19:00 +12°C° 0.1 mm 5 mps 755 mmHg 91%
    20:00 +12°C° 0.2 mm 5 mps 755 mmHg 91%
    21:00 +12°C° 0.2 mm 5 mps 755 mmHg 92%
    22:00 +13°C° 0.2 mm 5 mps 755 mmHg 92%
    23:00 +12°C° 0 mm 4 mps 756 mmHg 93%

    26 October, Thursday

    Time Temperature Precipitation Wind Pressure Humidity
    00:00 +12°C° 0 mm 4 mps 756 mmHg 94%
    01:00 +12°C° 0 mm 4 mps 756 mmHg 94%
    02:00 +12°C° 0 mm 4 mps 756 mmHg 95%
    03:00 +12°C° 0 mm 4 mps 756 mmHg 96%
    04:00 +11°C° 0 mm 4 mps 756 mmHg 96%
    05:00 +12°C° 0 mm 4 mps 756 mmHg 96%
    06:00 +12°C° 0 mm 4 mps 756 mmHg 95%
    07:00 +12°C° 0 mm 4 mps 756 mmHg 94%
    08:00 +12°C° 0 mm 4 mps 755 mmHg 91%
    09:00 +13°C° 0 mm 4 mps 755 mmHg 88%
    10:00 +13°C° 0 mm 5 mps 755 mmHg 85%
    11:00 +14°C° 0 mm 5 mps 755 mmHg 83%
    12:00 +14°C° 0 mm 5 mps 755 mmHg 81%
    13:00 +14°C° 0 mm 6 mps 754 mmHg 79%
    14:00 +14°C° 0 mm 5 mps 754 mmHg 80%
    15:00 +13°C° 0 mm 5 mps 754 mmHg 80%
    16:00 +13°C° 0 mm 5 mps 754 mmHg 81%
    17:00 +13°C° 0 mm 4 mps 753 mmHg 83%
    18:00 +12°C° 0 mm 4 mps 753 mmHg 84%
    19:00 +12°C° 0 mm 4 mps 753 mmHg 86%
    20:00 +12°C° 0.1 mm 4 mps 753 mmHg 88%
    21:00 +12°C° 0.1 mm 4 mps 753 mmHg 91%
    22:00 +12°C° 0.1 mm 4 mps 752 mmHg 93%
    23:00 +11°C° 0 mm 4 mps 752 mmHg 92%

    27 October, Friday

    Time Temperature Precipitation Wind Pressure Humidity
    00:00 +11°C° 0 mm 4 mps 751 mmHg 91%
    01:00 +11°C° 0 mm 4 mps 751 mmHg 91%
    02:00 +11°C° 0 mm 4 mps 750 mmHg 91%
    03:00 +10°C° 0 mm 4 mps 750 mmHg 91%
    04:00 +10°C° 0 mm 4 mps 749 mmHg 91%
    05:00 +10°C° 0.1 mm 4 mps 749 mmHg 91%
    06:00 +10°C° 0.1 mm 4 mps 748 mmHg 91%
    07:00 +10°C° 0.1 mm 4 mps 748 mmHg 90%
    08:00 +9°C° 0.3 mm 5 mps 748 mmHg 87%
    09:00 +10°C° 0.3 mm 6 mps 748 mmHg 83%
    10:00 +10°C° 0.3 mm 6 mps 747 mmHg 80%
    11:00 +10°C° 0.3 mm 7 mps 747 mmHg 78%
    12:00 +10°C° 0.3 mm 7 mps 746 mmHg 76%
    13:00 +10°C° 0.3 mm 7 mps 746 mmHg 74%
    14:00 +10°C° 0.2 mm 7 mps 746 mmHg 74%
    15:00 +10°C° 0.2 mm 6 mps 745 mmHg 74%
    16:00 +10°C° 0.2 mm 6 mps 745 mmHg 74%
    17:00 +9°C° 0.1 mm 6 mps 745 mmHg 76%
    18:00 +9°C° 0.1 mm 7 mps 745 mmHg 78%
    19:00 +9°C° 0.1 mm 7 mps 744 mmHg 81%
    20:00 +9°C° 0.1 mm 7 mps 744 mmHg 81%
    21:00 +9°C° 0.1 mm 7 mps 744 mmHg 81%
    22:00 +8°C° 0.1 mm 7 mps 744 mmHg 81%
    23:00 +8°C° 0 mm 6 mps 744 mmHg 82%

    28 October, Saturday

    Time Temperature Precipitation Wind Pressure Humidity
    00:00 +8°C° 0 mm 6 mps 744 mmHg 83%
    01:00 +7°C° 0 mm 6 mps 744 mmHg 85%
    02:00 +7°C° 0.1 mm 6 mps 743 mmHg 84%
    03:00 +7°C° 0.1 mm 6 mps 743 mmHg 83%
    04:00 +7°C° 0.1 mm 6 mps 742 mmHg 82%
    05:00 +7°C° 0.2 mm 6 mps 742 mmHg 83%
    06:00 +7°C° 0.2 mm 6 mps 741 mmHg 84%
    07:00 +7°C° 0.2 mm 6 mps 741 mmHg 84%
    08:00 +7°C° 0.2 mm 6 mps 741 mmHg 83%
    09:00 +7°C° 0.2 mm 6 mps 740 mmHg 82%
    10:00 +8°C° 0.2 mm 6 mps 740 mmHg 80%
    11:00 +8°C° 0.3 mm 6 mps 740 mmHg 80%
    12:00 +8°C° 0.3 mm 6 mps 739 mmHg 80%
    13:00 +8°C° 0.3 mm 5 mps 739 mmHg 80%
    14:00 +8°C° 0.1 mm 5 mps 739 mmHg 81%
    15:00 +8°C° 0.1 mm 4 mps 739 mmHg 82%
    16:00 +9°C° 0.1 mm 3 mps 739 mmHg 83%
    17:00 +9°C° 0.1 mm 3 mps 740 mmHg 84%
    18:00 +8°C° 0.1 mm 3 mps 740 mmHg 86%
    19:00 +8°C° 0.1 mm 3 mps 741 mmHg 87%
    20:00 +8°C° 0 mm 3 mps 742 mmHg 88%
    21:00 +6°C° 0 mm 4 mps 743 mmHg 89%
    22:00 +6°C° 0 mm 4 mps 743 mmHg 89%
    23:00 +6°C° 0 mm 4 mps 744 mmHg 90%

    29 October, Sunday

    Time Temperature Precipitation Wind Pressure Humidity
    00:00 +6°C° 0 mm 4 mps 745 mmHg 90%
    01:00 +6°C° 0 mm 4 mps 745 mmHg 90%
    02:00 +6°C° 0 mm 4 mps 746 mmHg 91%
    03:00 +5°C° 0 mm 4 mps 746 mmHg 92%
    04:00 +5°C° 0 mm 4 mps 746 mmHg 93%
    05:00 +5°C° 0 mm 4 mps 747 mmHg 94%
    06:00 +5°C° 0 mm 4 mps 747 mmHg 94%
    07:00 +4°C° 0 mm 4 mps 748 mmHg 95%
    08:00 +5°C° 0 mm 4 mps 748 mmHg 90%
    09:00 +6°C° 0 mm 5 mps 748 mmHg 86%
    10:00 +7°C° 0 mm 5 mps 748 mmHg 82%
    11:00 +8°C° 0 mm 5 mps 748 mmHg 79%
    12:00 +8°C° 0 mm 6 mps 748 mmHg 75%
    13:00 +8°C° 0 mm 6 mps 747 mmHg 72%
    14:00 +8°C° 0.1 mm 6 mps 747 mmHg 75%
    15:00 +8°C° 0.1 mm 7 mps 746 mmHg 78%
    16:00 +6°C° 0.1 mm 7 mps 745 mmHg 81%
    17:00 +8°C° 0.1 mm 7 mps 745 mmHg 83%
    18:00 +8°C° 0.1 mm 7 mps 744 mmHg 84%
    19:00 +8°C° 0.1 mm 7 mps 744 mmHg 85%
    20:00 +8°C° 0.1 mm 7 mps 743 mmHg 84%
    21:00 +9°C° 0.1 mm 7 mps 743 mmHg 83%
    22:00 +9°C° 0.1 mm 7 mps 742 mmHg 82%
    23:00 +9°C° 0.1 mm 7 mps 742 mmHg 81%
    Show more